Regional Weather Roundup
Issued by NWS

Home | Current Version | Previous Version | Text Only | Print | Product List | Glossary On
Versions: 1 2 3 4 5 6 7 8 9 10 11 12 13 14 15 16 17 18 19 20 21 22 23 24 25 26 27 28 29 30 31 32 33 34 35 36 37 38 39 40 41 42 43 44 45 46 47 48 49 50
365
ASUS42 KKEY 290810
RWRKEY

FLORIDA REGIONAL WEATHER ROUNDUP FOR THE FLORIDA KEYS
NATIONAL WEATHER SERVICE KEY WEST FLORIDA
400 AM EDT MON MAY 29 2017

...SOUTH FLORIDA AND THE KEYS...

CITY           SKY/WX    TMP DP  RH WIND       PRES   REMARKS
FORT MYERS     CLEAR     75  74  96 CALM      29.98S
SW REGIONAL AP CLEAR     73  70  90 CALM      29.99S
NAPLES         CLEAR     76  73  91 SE6       29.98F
MIAMI          PTCLDY    79  70  74 CALM      30.00F
WEST KENDALL     N/A    N/A N/A N/A MISG        N/A
HOMESTEAD      NOT AVBL
MARATHON       CLEAR     82  75  79 CALM      30.00F
BOCA CHICA NAS CLEAR     79  76  90 E3        30.00F
KEY WEST INTL  CLEAR     81  75  82 E3        30.01F

...INTERNATIONAL WEATHER...

CITY           SKY/WX    TMP DP  RH WIND       PRES   REMARKS
NASSAU BAHAMAS PTCLDY    77  72  83 CALM      30.04S
CANCUN MEXICO  CLEAR     81  75  83 E6        29.98F
COZUMEL MEXICO PTCLDY    75  73  94 CALM      29.96F

ADJACENT COASTAL WATERS...

STATION/POSITION TIME  SKY/WX   TEMP    WIND        PRES    WAVE
                                AIR SEA DIR/SP/G            HT/PER
                 (UTC)          (F)     (DEG/KT/KT) (MB)    (FT/S)
PULASKI SHOAL LI 0800            81     120/  6/  7 1015.7F
SAND KEY         0750            82     100/  6/  6 1016.8F
LONG KEY         0700            83 89     CALM     1016.7F
MOLASSES REEF    0800            83 82   CALM  /  1 1016.6F
FOWEY ROCKS      0800            81 82  240/  8/  8 1016.6F
Buoy 42097       0800                                 N/A     2/ 7

$$




USA.gov is the U.S. government's official web portal to all federal, state and local government web resources and services.